When you browse on this site, cookies collect data to enhance your experience and personalize the content and advertising you see.
Visit our Privacy Policy to learn more. By continuing to use the site, you agree to this use of cookies and data.
  • En España
  • Lista de países
  • Para 7 días
  • Temperatura del agua
  • Mapa Satelital
  • El tiempo en el mapa
  • Informadores
  • user-avatar
    Iniciar sesión

    Tiempo cada hora Townsville

    Hoy, 21 Julio, Domingo

    Tiempo Temperatura Precipitaciones Viento Presión Humedad
    00:00 +14°C° 0 mm 3 mps 756 mmHg 89%
    01:00 +14°C° 0 mm 3 mps 756 mmHg 90%
    02:00 +14°C° 0 mm 3 mps 756 mmHg 90%
    03:00 +14°C° 0 mm 3 mps 756 mmHg 90%
    04:00 +13°C° 0 mm 3 mps 756 mmHg 90%
    05:00 +13°C° 0 mm 3 mps 756 mmHg 89%
    06:00 +14°C° 0 mm 2 mps 756 mmHg 88%
    07:00 +14°C° 0 mm 2 mps 756 mmHg 87%
    08:00 +17°C° 0 mm 2 mps 756 mmHg 77%
    09:00 +19°C° 0 mm 2 mps 756 mmHg 66%
    10:00 +23°C° 0 mm 2 mps 757 mmHg 55%
    11:00 +24°C° 0 mm 2 mps 756 mmHg 53%
    12:00 +24°C° 0 mm 3 mps 755 mmHg 50%
    13:00 +25°C° 0 mm 3 mps 754 mmHg 48%
    14:00 +25°C° 0 mm 3 mps 754 mmHg 49%
    15:00 +25°C° 0 mm 3 mps 754 mmHg 50%
    16:00 +23°C° 0 mm 4 mps 753 mmHg 51%
    17:00 +21°C° 0 mm 3 mps 754 mmHg 63%
    18:00 +20°C° 0 mm 3 mps 754 mmHg 75%
    19:00 +18°C° 0 mm 2 mps 754 mmHg 87%
    20:00 +17°C° 0 mm 2 mps 754 mmHg 88%
    21:00 +17°C° 0 mm 2 mps 755 mmHg 89%
    22:00 +17°C° 0 mm 2 mps 755 mmHg 90%
    23:00 +17°C° 0 mm 2 mps 755 mmHg 88%

    Mañana, 22 Julio, Lunes

    Tiempo Temperatura Precipitaciones Viento Presión Humedad
    00:00 +17°C° 0 mm 2 mps 755 mmHg 86%
    01:00 +17°C° 0 mm 2 mps 755 mmHg 85%
    02:00 +17°C° 0 mm 2 mps 754 mmHg 82%
    03:00 +18°C° 0 mm 2 mps 754 mmHg 78%
    04:00 +18°C° 0 mm 2 mps 754 mmHg 75%
    05:00 +18°C° 0 mm 3 mps 754 mmHg 78%
    06:00 +17°C° 0 mm 3 mps 755 mmHg 81%
    07:00 +17°C° 0 mm 3 mps 755 mmHg 85%
    08:00 +19°C° 0 mm 3 mps 755 mmHg 75%
    09:00 +21°C° 0 mm 3 mps 755 mmHg 65%
    10:00 +25°C° 0 mm 3 mps 756 mmHg 55%
    11:00 +25°C° 0 mm 3 mps 755 mmHg 53%
    12:00 +26°C° 0 mm 4 mps 755 mmHg 51%
    13:00 +27°C° 0 mm 4 mps 754 mmHg 49%
    14:00 +26°C° 0 mm 4 mps 754 mmHg 52%
    15:00 +26°C° 0 mm 5 mps 754 mmHg 54%
    16:00 +26°C° 0 mm 5 mps 753 mmHg 56%
    17:00 +25°C° 0 mm 5 mps 754 mmHg 63%
    18:00 +22°C° 0 mm 5 mps 754 mmHg 70%
    19:00 +21°C° 0 mm 5 mps 754 mmHg 76%
    20:00 +20°C° 0 mm 5 mps 755 mmHg 78%
    21:00 +20°C° 0 mm 4 mps 755 mmHg 80%
    22:00 +20°C° 0 mm 4 mps 756 mmHg 81%
    23:00 +19°C° 0 mm 4 mps 755 mmHg 83%

    Pasado mañana, 23 Julio, Martes

    Tiempo Temperatura Precipitaciones Viento Presión Humedad
    00:00 +19°C° 0 mm 4 mps 755 mmHg 84%
    01:00 +19°C° 0 mm 4 mps 755 mmHg 85%
    02:00 +18°C° 0 mm 4 mps 755 mmHg 85%
    03:00 +18°C° 0 mm 4 mps 755 mmHg 86%
    04:00 +18°C° 0 mm 3 mps 755 mmHg 86%
    05:00 +18°C° 0 mm 3 mps 756 mmHg 88%
    06:00 +17°C° 0 mm 3 mps 756 mmHg 89%
    07:00 +17°C° 0 mm 3 mps 757 mmHg 91%
    08:00 +19°C° 0 mm 3 mps 757 mmHg 83%
    09:00 +21°C° 0 mm 3 mps 757 mmHg 74%
    10:00 +24°C° 0 mm 3 mps 758 mmHg 66%
    11:00 +23°C° 0 mm 4 mps 757 mmHg 64%
    12:00 +25°C° 0 mm 4 mps 757 mmHg 61%
    13:00 +26°C° 0 mm 4 mps 756 mmHg 59%
    14:00 +25°C° 0 mm 5 mps 756 mmHg 61%
    15:00 +25°C° 0 mm 5 mps 756 mmHg 64%
    16:00 +23°C° 0 mm 5 mps 756 mmHg 66%
    17:00 +22°C° 0 mm 5 mps 756 mmHg 72%
    18:00 +21°C° 0 mm 4 mps 756 mmHg 77%
    19:00 +20°C° 0 mm 4 mps 757 mmHg 83%
    20:00 +20°C° 0 mm 4 mps 757 mmHg 83%
    21:00 +19°C° 0 mm 4 mps 758 mmHg 84%
    22:00 +19°C° 0 mm 3 mps 758 mmHg 85%
    23:00 +19°C° 0 mm 4 mps 758 mmHg 86%

    24 Julio, Miércoles

    Tiempo Temperatura Precipitaciones Viento Presión Humedad
    00:00 +18°C° 0 mm 4 mps 758 mmHg 88%
    01:00 +18°C° 0 mm 4 mps 758 mmHg 89%
    02:00 +18°C° 0 mm 4 mps 758 mmHg 90%
    03:00 +17°C° 0 mm 4 mps 757 mmHg 91%
    04:00 +17°C° 0 mm 4 mps 757 mmHg 92%
    05:00 +15°C° 0 mm 4 mps 758 mmHg 92%
    06:00 +15°C° 0 mm 4 mps 758 mmHg 91%
    07:00 +16°C° 0 mm 3 mps 758 mmHg 91%
    08:00 +18°C° 0 mm 4 mps 759 mmHg 77%
    09:00 +20°C° 0 mm 4 mps 759 mmHg 63%
    10:00 +23°C° 0 mm 4 mps 759 mmHg 50%
    11:00 +23°C° 0 mm 5 mps 759 mmHg 47%
    12:00 +25°C° 0 mm 5 mps 758 mmHg 45%
    13:00 +26°C° 0 mm 6 mps 758 mmHg 43%
    14:00 +24°C° 0 mm 6 mps 757 mmHg 45%
    15:00 +24°C° 0 mm 6 mps 757 mmHg 48%
    16:00 +24°C° 0 mm 6 mps 756 mmHg 50%
    17:00 +22°C° 0 mm 6 mps 757 mmHg 57%
    18:00 +20°C° 0 mm 5 mps 757 mmHg 63%
    19:00 +19°C° 0 mm 5 mps 758 mmHg 70%
    20:00 +18°C° 0 mm 4 mps 758 mmHg 72%
    21:00 +17°C° 0 mm 4 mps 758 mmHg 74%
    22:00 +17°C° 0 mm 4 mps 759 mmHg 76%
    23:00 +15°C° 0 mm 4 mps 758 mmHg 77%

    25 Julio, Jueves

    Tiempo Temperatura Precipitaciones Viento Presión Humedad
    00:00 +15°C° 0 mm 4 mps 758 mmHg 79%
    01:00 +14°C° 0 mm 3 mps 758 mmHg 80%
    02:00 +14°C° 0 mm 3 mps 757 mmHg 81%
    03:00 +13°C° 0 mm 3 mps 757 mmHg 82%
    04:00 +13°C° 0 mm 3 mps 757 mmHg 84%
    05:00 +13°C° 0 mm 3 mps 757 mmHg 83%
    06:00 +13°C° 0 mm 3 mps 758 mmHg 83%
    07:00 +13°C° 0 mm 3 mps 758 mmHg 83%
    08:00 +17°C° 0 mm 3 mps 758 mmHg 72%
    09:00 +19°C° 0 mm 4 mps 758 mmHg 60%
    10:00 +22°C° 0 mm 4 mps 758 mmHg 48%
    11:00 +23°C° 0 mm 4 mps 758 mmHg 45%
    12:00 +25°C° 0 mm 5 mps 757 mmHg 43%
    13:00 +26°C° 0 mm 6 mps 757 mmHg 40%
    14:00 +26°C° 0 mm 6 mps 756 mmHg 43%
    15:00 +24°C° 0 mm 6 mps 756 mmHg 46%
    16:00 +24°C° 0 mm 6 mps 756 mmHg 49%
    17:00 +22°C° 0 mm 6 mps 756 mmHg 57%
    18:00 +20°C° 0 mm 6 mps 757 mmHg 64%
    19:00 +17°C° 0 mm 5 mps 757 mmHg 72%
    20:00 +17°C° 0 mm 5 mps 757 mmHg 75%
    21:00 +17°C° 0 mm 4 mps 758 mmHg 79%
    22:00 +17°C° 0 mm 4 mps 758 mmHg 82%
    23:00 +15°C° 0 mm 4 mps 758 mmHg 84%

    26 Julio, Viernes

    Tiempo Temperatura Precipitaciones Viento Presión Humedad
    00:00 +15°C° 0 mm 4 mps 757 mmHg 85%
    01:00 +14°C° 0 mm 4 mps 757 mmHg 87%
    02:00 +14°C° 0 mm 4 mps 757 mmHg 88%
    03:00 +14°C° 0 mm 3 mps 757 mmHg 89%
    04:00 +14°C° 0 mm 3 mps 757 mmHg 90%
    05:00 +14°C° 0 mm 3 mps 757 mmHg 91%
    06:00 +14°C° 0 mm 4 mps 757 mmHg 92%
    07:00 +13°C° 0 mm 4 mps 757 mmHg 93%
    08:00 +17°C° 0 mm 3 mps 757 mmHg 81%
    09:00 +19°C° 0 mm 3 mps 757 mmHg 70%
    10:00 +22°C° 0 mm 3 mps 757 mmHg 59%
    11:00 +23°C° 0 mm 4 mps 757 mmHg 56%
    12:00 +25°C° 0 mm 4 mps 756 mmHg 54%
    13:00 +26°C° 0 mm 5 mps 755 mmHg 51%
    14:00 +25°C° 0 mm 5 mps 755 mmHg 54%
    15:00 +25°C° 0 mm 5 mps 755 mmHg 57%
    16:00 +23°C° 0 mm 5 mps 755 mmHg 61%
    17:00 +22°C° 0 mm 5 mps 755 mmHg 68%
    18:00 +20°C° 0 mm 4 mps 756 mmHg 76%
    19:00 +19°C° 0 mm 4 mps 756 mmHg 84%
    20:00 +18°C° 0 mm 4 mps 756 mmHg 85%
    21:00 +18°C° 0 mm 4 mps 757 mmHg 86%
    22:00 +18°C° 0 mm 4 mps 757 mmHg 88%
    23:00 +17°C° 0 mm 4 mps 757 mmHg 89%
    Mostrar más